星链-5192 (STARLINK-5192 )

导读

STARLINK-5192是美国太空探索技术公司(SpaceX)于2022年10月20日发射的星链卫星,隶属于Starlink星链互联网星座项目。星链通过构建低轨卫星星座向全球提供高速互联网服务,STARLINK-5192承担着扩大星座覆盖范围、提升全球网络服务能力的任务。

基本信息
目录编号:
54074
目录名称:
STARLINK-5192
国际标识:
2022-136Z
轨道中心:
EARTH
卫星名称:
星链-5192
卫星全名:
星链-5192 (STARLINK-5192 )
卫星状态:
在轨 (已飞行1334 天)
发射日期:
2022-10-20 UTC
国别 :
美国 (US)
星等 :
--
轨道信息
数据来源 国际轨道数据 AOE轨道数据
星历时间 2026-06-14T21:27:36+0800
18小时前
查看轨道信息
2026-06-13T07:00:00+0800
2天前
查看轨道信息
半长轴 6917.878km 6917.84km
偏心率 0.000125 0.0001378
轨道倾角 53.161° 53.160°
近地点辐角 89.434° 66.319°
升交点赤经 268.782° 275.986°
平近点角 270.679° 224.576°
近地点 538.876km 538.749km
远地点 540.606km 540.657km
周期 95.438分钟 95.437分钟
每日圈数 15.088408 15.088533
详细信息
固有亮度:
5
最大亮度:
2.5
卫星平台:
Starlink v1.5
覆盖范围:
全球
运营商:
太空探索技术公司
运营商所在国:
美国
制造商(研发单位):
太空探索技术公司
制造商所在国:
美国
使用方式:
暂无
卫星简介
星链(Starlink)计划是由太空探索技术公司(SpaceX)提出的一个巨型低轨卫星互联网星座项目,计划在2019年至2024年间在太空搭建由约1.2万颗卫星组成的“星链”网络,其中1584颗将部署在地球上空550千米处的近地轨道,并从2020年开始工作。该卫星仍在工作。
2D轨道图
3D轨道图
轨道高度分析图
轨道倾角分析图
轨道综合分析图
查看轨道综合分析图